Tracking 19720 objects as of 26-Jun-2019
HD Live streaming from Space Station
objects crossing your sky now

FENGYUN 1C DEB

Track FENGYUN 1C DEB now!
10-day predictions


NORAD ID: 31678
Int'l Code: 1999-025CCL
Perigee: 558.6 km
Apogee: 1,057.9 km
Inclination: 99.0 °
Period: 100.9 minutes
Semi major axis: 7179 km
RCS: 0.0167 m2 (small)
Launch date: May 10, 1999
Source: People's Republic of China (PRC)
Launch site: Taiyaun Space Center, China (TSC)

Note: This is SATELLITE DEBRIS
aabbcc
Your satellite tracking list
Your tracking list is empty




NASA's NSSDC Master Catalog

Two Line Element Set (TLE):
1 31678U 99025CCL 19176.26607929  .00000271  00000-0  70946-4 0  9995
2 31678  98.9884 185.9093 0347675 128.9665 234.3041 14.27198704630512
Source of the keplerian elements: AFSPC